Tracking 31027 objects as of 19-Jul-2025
HD Live streaming from Space Station
objects crossing your sky now

NOAA 16 DEB

Track NOAA 16 DEB now!
10-day predictions


NORAD ID: 41498
Int'l Code: 2000-055LW
Perigee: 802.5 km
Apogee: 834.2 km
Inclination: 99.0 °
Period: 101.1 minutes
Semi major axis: 7189 km
RCS: Unknown
Launch date: September 21, 2000
Source: United States (US)
Launch site: AIR FORCE WESTERN TEST RANGE (AFWTR)

Note: This is SATELLITE DEBRIS
Your satellite tracking list
FENGYUN 1C DEB
Track 1 satellite(s)




NASA's NSSDC Master Catalog

Two Line Element Set (TLE):
1 41498U 00055LW  25199.30321298  .00001878  00000-0  83310-3 0  9992
2 41498  98.9712 332.1304 0022053 185.7976 174.2950 14.24186358484269
Source of the keplerian elements: AFSPC